This is the latest recevied weather packets stored in our database for station/object W6MAF. If no packets are shown the sender has not sent any weather packets the latest 10 day(s).
| Time | Temp. | Humidity | Pressure | Rain* | Wind** | Luminosity | Snow |
|---|---|---|---|---|---|---|---|
| 1787991449 | 21.67° C | 35% | - | 0 mm | 2.68 m/s, 238° | - | - |
| 1787991151 | 21.67° C | 35% | - | 0 mm | 2.24 m/s, 197° | - | - |
| 1787990854 | 21.67° C | 35% | - | 0 mm | 1.34 m/s, 210° | - | - |
| 1787990556 | 21.67° C | 35% | - | 0 mm | 2.68 m/s, 226° | - | - |
| 1787990258 | 21.67° C | 35% | - | 0 mm | 2.24 m/s, 207° | - | - |
| 1787989960 | 21.67° C | 35% | - | 0 mm | 2.24 m/s, 232° | - | - |
| 1787989659 | 21.67° C | 35% | - | 0 mm | 2.68 m/s, 221° | - | - |
| 1787989362 | 21.67° C | 34% | - | 0 mm | 2.68 m/s, 217° | - | - |
| 1787989064 | 21.67° C | 34% | - | 0 mm | 1.79 m/s, 217° | - | - |
| 1787989048 | 22.22° C | 31% | - | 0 mm | 1.79 m/s, 217° | - | - |
| 1787989048 | 22.22° C | 32% | - | 0 mm | 1.79 m/s, 211° | - | - |
| 1787989048 | 22.22° C | 32% | - | 0 mm | 1.79 m/s, 204° | - | - |
| 1787989048 | 22.22° C | 31% | - | 0 mm | 1.79 m/s, 200° | - | - |
| 1787988884 | 21.67° C | 33% | - | 0 mm | 2.24 m/s, 210° | - | - |
| 1787988766 | 21.67° C | 33% | - | 0 mm | 2.24 m/s, 210° | - | - |
| 1787988171 | 22.22° C | 32% | - | 0 mm | 1.79 m/s, 211° | - | - |
| 1787987871 | 22.22° C | 32% | - | 0 mm | 1.79 m/s, 204° | - | - |
| 1787987870 | 22.22° C | 32% | - | 0 mm | 1.79 m/s, 204° | - | - |
| 1787987572 | 22.22° C | 31% | - | 0 mm | 1.79 m/s, 217° | - | - |
| 1787987274 | 22.22° C | 31% | - | 0 mm | 1.79 m/s, 200° | - | - |
| 1787986977 | 22.22° C | 31% | - | 0 mm | 0 m/s | - | - |
| 1787986679 | 22.22° C | 31% | - | 0 mm | 2.24 m/s, 176° | - | - |
| 1787986381 | 22.22° C | 31% | - | 0 mm | 2.68 m/s, 193° | - | - |
| 1787986081 | 22.22° C | 30% | - | 0 mm | 2.68 m/s, 198° | - | - |
| 1787986080 | 22.22° C | 30% | - | 0 mm | 2.68 m/s, 198° | - | - |
* Rain latest hour (hover to see other rain measurements)
** Current wind speed in m/s (hover to see current wind gust speed)